[[{"header":{"parameterUnit":"m.s-1","parameterCategory":1,"la1":30.2991,"la2":30.254,"lo1":-89.0895,"lo2":-89.0444,"dy":0.0017,"dx":0.0017,"nx":28,"ny":28,"refTime":"2024-04-19T09:00:00:Z","depth":0,"parameterNumber":2,"parameterNumberName":"U-component_of_WINDS"},"data":[0,0,0,0,0,0,0,0,0,0,0,0,0,0,0,0,0,0,0,0,0,0,0,0,0,0,0,0,0,0,0,0,0,0,0,0,0,0,0,0,0,0,0,0,0,0,0,0,0,0,0,0,0,0,0,0,0,0,-0.3819,-0.3817,0,-0.3673,-0.3671,-0.3669,-0.3628,-0.3629,-0.363,-0.3631,-0.3477,-0.3473,-0.3468,0,0,0,0,0,0,0,0,0,0,0,0,0,-0.4061,-0.4057,-0.3819,-0.3817,-0.3815,-0.3673,-0.3671,-0.3669,-0.3628,-0.3629,-0.363,-0.3631,-0.3479,-0.3473,-0.3468,0,0,0,0,0,0,0,0,0,0,0,0,0,-0.3939,-0.4055,-0.3819,-0.3778,-0.3773,-0.3673,-0.3671,-0.3668,-0.3628,-0.3629,-0.363,-0.3632,-0.3481,-0.3474,-0.3467,-0.3397,0,0,-0.3444,-0.3441,0,0,0,0,0,0,0,0,-0.3946,-0.393,-0.3786,-0.3781,-0.3775,-0.367,-0.37,-0.3577,-0.3628,-0.3683,-0.3631,-0.3632,-0.354,-0.3528,-0.3498,-0.339,-0.3383,-0.3444,-0.3439,-0.3436,-0.3434,0,0,0,0,0,0,0,-0.3955,-0.3936,-0.3761,-0.3784,-0.3777,-0.3766,-0.375,-0.3676,-0.3606,-0.3678,-0.3675,-0.3658,-0.3537,-0.3505,-0.3494,-0.3381,-0.3444,-0.3438,-0.3433,-0.343,-0.3209,-0.3208,0,0,0,0,0,0,-0.3971,-0.3944,-0.3766,-0.3757,-0.3865,-0.3761,-0.3743,-0.3702,-0.3607,-0.3594,-0.3657,-0.3657,-0.3517,-0.3503,-0.3489,-0.3401,-0.3436,-0.343,-0.3425,-0.3211,-0.3209,-0.3207,0,0,0,0,0,0,-0.3976,-0.3955,-0.3771,-0.3849,-0.3825,-0.3755,-0.371,-0.3699,-0.3666,-0.3591,-0.3578,-0.3637,-0.3517,-0.3499,-0.3421,-0.3396,-0.3426,-0.342,-0.3213,-0.321,-0.3208,-0.3226,0,0,0,0,0,0,-0.3983,-0.3957,-0.393,-0.3849,-0.3821,-0.3707,-0.3708,-0.3695,-0.3654,-0.3652,-0.3569,-0.3556,-0.3517,-0.3432,-0.3413,-0.3386,-0.3414,-0.3215,-0.3212,-0.3209,-0.3228,-0.3225,-0.3223,0,0,0,0,0,-0.3992,-0.394,-0.3929,-0.3908,-0.3786,-0.3705,-0.3689,-0.3646,-0.3652,-0.3625,-0.3577,-0.3559,-0.3401,-0.3424,-0.3403,-0.3373,-0.3216,-0.3212,-0.3209,-0.3229,-0.3226,-0.3223,0,0,0,0,0,0,-0.4019,-0.3929,-0.3915,-0.3836,-0.3779,-0.3699,-0.3662,-0.3643,-0.3582,-0.3583,-0.353,-0.3512,-0.3438,-0.3397,-0.3424,-0.3301,-0.3308,-0.3301,-0.333,-0.3327,-0.3324,-0.3335,-0.3408,0,0,0,0,0,-0.4016,-0.3959,-0.3882,-0.382,-0.3792,-0.3732,-0.3695,-0.3667,-0.3605,-0.358,-0.3526,-0.3466,-0.3403,-0.3363,-0.33,-0.3222,-0.3203,-0.3191,-0.3189,-0.3187,-0.3181,-0.3137,-0.3131,-0.3196,-0.3196,-0.3196,0,0,-0.4009,-0.3952,-0.3919,-0.3824,-0.3776,-0.3718,-0.3712,-0.365,-0.3606,-0.357,-0.3494,-0.3453,-0.3382,-0.3304,-0.3266,-0.3268,-0.3159,-0.3183,-0.3182,-0.3176,-0.3133,-0.3127,-0.3122,-0.3194,-0.3195,-0.3195,0,0,-0.3965,-0.3917,-0.386,-0.3813,-0.3741,-0.3702,-0.3689,-0.3611,-0.3583,-0.3506,-0.3479,-0.3425,-0.3317,-0.3269,-0.323,-0.317,-0.3152,-0.3151,-0.3138,-0.3097,-0.3091,-0.3087,-0.3066,-0.3059,-0.3146,-0.3146,-0.3146,0,-0.3965,-0.3877,-0.3833,-0.3773,-0.3732,-0.3699,-0.3641,-0.3597,-0.3508,-0.3481,-0.3484,-0.3349,-0.3299,-0.321,-0.3196,-0.3165,-0.3148,-0.316,-0.3096,-0.3091,-0.3086,-0.3065,-0.3058,-0.3146,-0.3146,-0.3146,-0.3146,0,-0.388,-0.3819,-0.3782,-0.3699,-0.3654,-0.3595,-0.3542,-0.3501,-0.3478,-0.3438,-0.336,-0.33,-0.3225,-0.3202,-0.3177,-0.3109,-0.3112,-0.3106,-0.3112,-0.3081,-0.3061,-0.3053,-0.3147,-0.3146,-0.3146,-0.3146,0,0,-0.3849,-0.3744,-0.3731,-0.3694,-0.3613,-0.3565,-0.3505,-0.3433,-0.34,-0.334,-0.3289,-0.3199,-0.3194,-0.315,-0.3119,-0.3083,-0.3041,-0.3081,-0.3079,-0.3077,-0.2963,-0.2969,-0.296,-0.3029,-0.3027,-0.3026,-0.297,0,-0.3796,-0.3689,-0.3648,-0.356,-0.3503,-0.3472,-0.342,-0.3365,-0.3327,-0.3273,-0.323,-0.3168,-0.3165,-0.3139,-0.3101,-0.3054,-0.3018,-0.3058,-0.298,-0.2978,-0.2999,-0.295,-0.2955,-0.2905,-0.2961,-0.296,-0.2959,0,-0.372,-0.3661,-0.3568,-0.3496,-0.3471,-0.3424,-0.3356,-0.3305,-0.3242,-0.3217,-0.3169,-0.3142,-0.3078,-0.3088,-0.2999,-0.3027,-0.2993,-0.2965,-0.2962,-0.2953,-0.2967,-0.294,-0.2887,-0.288,-0.2946,-0.2947,-0.2948,0,-0.3708,-0.3605,-0.3536,-0.3505,-0.3419,-0.3387,-0.335,-0.3288,-0.3248,-0.3189,-0.3163,-0.3096,-0.3059,-0.3008,-0.2963,-0.2975,-0.2879,-0.2885,-0.2856,-0.2857,-0.2837,-0.2839,-0.2779,-0.2815,-0.2815,-0.2815,-0.2815,0,-0.3653,-0.3597,-0.353,-0.3488,-0.3424,-0.3379,-0.3317,-0.3277,-0.3223,-0.3172,-0.3141,-0.3094,-0.3037,-0.2983,-0.2947,-0.288,-0.2863,-0.2841,-0.2832,-0.2844,-0.2847,-0.2821,-0.2823,-0.2813,-0.2813,-0.2814,-0.2814,0,-0.3628,-0.3581,-0.3504,-0.343,-0.341,-0.3366,-0.3302,-0.326,-0.3221,-0.3157,-0.314,-0.3078,-0.3013,-0.2964,-0.2878,-0.2854,-0.2783,-0.2773,-0.2804,-0.28,-0.2774,-0.2777,-0.2695,-0.2682,-0.2727,-0.2726,-0.2726,0,-0.3597,-0.3553,-0.3475,-0.3439,-0.3403,-0.3345,-0.3305,-0.3258,-0.3218,-0.3144,-0.311,-0.3043,-0.2987,-0.2884,-0.2831,-0.2766,-0.2755,-0.2731,-0.2745,-0.2759,-0.2755,-0.2759,-0.2754,-0.2729,-0.2729,-0.2728,-0.2728,0,-0.3546,-0.3525,-0.3469,-0.3405,-0.3358,-0.3305,-0.3251,-0.3223,-0.3167,-0.3123,-0.3057,-0.3013,-0.2927,-0.2861,-0.2791,-0.2752,-0.2731,-0.2725,-0.2714,-0.2726,-0.2746,-0.2736,-0.28,-0.2726,-0.2727,-0.2727,-0.2727,-0.2727,-0.3517,-0.3478,-0.3417,-0.3355,-0.331,-0.3261,-0.3218,-0.3175,-0.3119,-0.3046,-0.3022,-0.2954,-0.2893,-0.2797,-0.2757,-0.2703,-0.2702,-0.2687,-0.2684,-0.2681,-0.2682,-0.2755,-0.269,-0.269,-0.269,-0.269,-0.269,0,-0.3465,-0.3425,-0.3369,-0.3296,-0.3248,-0.3234,-0.3174,-0.3134,-0.3075,-0.302,-0.2966,-0.289,-0.2826,-0.277,-0.2703,-0.2671,-0.2659,-0.2655,-0.2657,-0.2648,-0.2686,-0.2702,-0.2665,-0.2665,-0.2665,-0.2665,-0.2665,-0.2665,-0.3433,-0.3366,-0.3338,-0.3248,-0.3208,-0.3142,-0.3109,-0.3064,-0.302,-0.2937,-0.2885,-0.2849,-0.2793,-0.2722,-0.2663,-0.2648,-0.2625,-0.2623,-0.2606,-0.2642,-0.2645,-0.2648,-0.2663,-0.2618,-0.2618,-0.2572,-0.2572,-0.2572]},{"header":{"parameterUnit":"m.s-1","parameterCategory":1,"la1":30.2991,"la2":30.254,"lo1":-89.0895,"lo2":-89.0444,"dy":0.0017,"dx":0.0017,"nx":28,"ny":28,"refTime":"2024-04-19T09:00:00:Z","depth":0,"parameterNumber":3,"parameterNumberName":"V-component_of_WINDS"},"data":[0,0,0,0,0,0,0,0,0,0,0,0,0,0,0,0,0,0,0,0,0,0,0,0,0,0,0,0,0,0,0,0,0,0,0,0,0,0,0,0,0,0,0,0,0,0,0,0,0,0,0,0,0,0,0,0,0,0,2.7161,2.7161,0,2.7126,2.7125,2.7125,2.7074,2.7073,2.7073,2.7072,2.7035,2.7035,2.7035,0,0,0,0,0,0,0,0,0,0,0,0,0,2.7185,2.7185,2.7161,2.7161,2.716,2.7126,2.7125,2.7125,2.7074,2.7073,2.7072,2.7071,2.7036,2.7035,2.7035,0,0,0,0,0,0,0,0,0,0,0,0,0,2.7165,2.7185,2.7161,2.7131,2.7128,2.7126,2.7125,2.7124,2.7075,2.7073,2.7072,2.7071,2.7036,2.7035,2.7035,2.7059,0,0,2.7034,2.7034,0,0,0,0,0,0,0,0,2.7166,2.7164,2.7136,2.7133,2.713,2.7103,2.712,2.7103,2.7075,2.7095,2.7072,2.707,2.7059,2.7057,2.7053,2.7058,2.7056,2.7034,2.7034,2.7034,2.7034,0,0,0,0,0,0,0,2.7167,2.7165,2.7147,2.7136,2.7132,2.7119,2.7115,2.7117,2.7085,2.7093,2.7089,2.7086,2.7057,2.7053,2.7052,2.7056,2.7034,2.7034,2.7034,2.7034,2.7077,2.7078,0,0,0,0,0,0,2.7173,2.7167,2.7148,2.7146,2.7145,2.712,2.7115,2.7113,2.7085,2.7079,2.7087,2.7084,2.7054,2.7052,2.705,2.7075,2.7034,2.7034,2.7034,2.7076,2.7077,2.7079,0,0,0,0,0,0,2.7174,2.7172,2.715,2.7155,2.7151,2.7121,2.7119,2.7113,2.7109,2.708,2.7074,2.7089,2.7053,2.7051,2.7057,2.7073,2.7034,2.7034,2.7074,2.7076,2.7078,2.7127,0,0,0,0,0,0,2.7175,2.7173,2.7182,2.7156,2.7151,2.7158,2.712,2.7113,2.7109,2.7104,2.708,2.7075,2.7052,2.7058,2.7057,2.7072,2.7033,2.7072,2.7075,2.7077,2.7124,2.713,2.7136,0,0,0,0,0,2.7176,2.7198,2.7183,2.7181,2.7162,2.7159,2.7156,2.7129,2.711,2.7119,2.71,2.7076,2.7072,2.7059,2.7057,2.7073,2.7071,2.7074,2.7077,2.7121,2.7129,2.7136,0,0,0,0,0,0,2.7227,2.7194,2.7177,2.719,2.7178,2.715,2.716,2.7139,2.7131,2.7127,2.7094,2.7089,2.7099,2.7087,2.7073,2.7094,2.7068,2.7071,2.7102,2.7109,2.7115,2.7118,2.7033,0,0,0,0,0,2.7239,2.7239,2.7211,2.7225,2.722,2.7191,2.7189,2.7169,2.7154,2.7149,2.713,2.7117,2.7113,2.711,2.7105,2.7122,2.7115,2.7132,2.7138,2.7144,2.7146,2.7152,2.7159,2.7088,2.7088,2.7088,0,0,2.7266,2.7248,2.725,2.7235,2.7223,2.7223,2.7187,2.7189,2.7189,2.7149,2.7154,2.714,2.7123,2.7134,2.7138,2.7124,2.7164,2.7147,2.7152,2.7151,2.7156,2.7163,2.7169,2.709,2.709,2.7089,0,0,2.7313,2.73,2.731,2.7299,2.7281,2.7261,2.7264,2.7239,2.7228,2.7233,2.7202,2.7201,2.7195,2.7184,2.7177,2.722,2.7196,2.7219,2.7251,2.7257,2.7263,2.7268,2.7281,2.7287,2.7222,2.7222,2.7222,0,2.7348,2.7347,2.7319,2.7322,2.7316,2.728,2.729,2.728,2.7261,2.7257,2.7242,2.7232,2.7218,2.7226,2.7236,2.7233,2.7234,2.7221,2.7265,2.7269,2.7273,2.7286,2.7291,2.7224,2.7224,2.7224,2.7224,0,2.739,2.739,2.7401,2.7383,2.7378,2.7385,2.7357,2.7355,2.7336,2.7318,2.7322,2.7304,2.7294,2.7294,2.7276,2.7299,2.7291,2.7271,2.7243,2.7283,2.7294,2.7299,2.7228,2.7227,2.7227,2.7226,0,0,2.7469,2.7434,2.7438,2.7429,2.7406,2.7405,2.741,2.74,2.7399,2.7387,2.7389,2.7384,2.7365,2.7358,2.7337,2.7344,2.7377,2.7322,2.7321,2.7332,2.7399,2.7414,2.742,2.7361,2.7362,2.7363,2.74,0,2.7511,2.7517,2.7491,2.7503,2.7502,2.7468,2.7472,2.7458,2.7441,2.7438,2.7419,2.7416,2.7391,2.7386,2.7391,2.7372,2.7389,2.7369,2.7362,2.7362,2.7366,2.7426,2.7441,2.7477,2.7404,2.7405,2.7406,0,2.756,2.7551,2.7563,2.7538,2.7537,2.7541,2.7529,2.7526,2.7509,2.7497,2.7488,2.7465,2.7467,2.7441,2.7443,2.743,2.7426,2.7416,2.7416,2.7414,2.7386,2.7424,2.7488,2.7493,2.7413,2.7412,2.7412,0,2.7614,2.7604,2.761,2.7604,2.7576,2.7579,2.7567,2.7549,2.7544,2.7534,2.753,2.752,2.7514,2.7506,2.748,2.7465,2.7485,2.7458,2.7473,2.7474,2.7478,2.7478,2.7542,2.7478,2.7478,2.7478,2.7478,0,2.7663,2.7672,2.7634,2.7637,2.7646,2.7616,2.7625,2.761,2.7594,2.7593,2.7563,2.7563,2.753,2.7526,2.7505,2.7509,2.7507,2.7496,2.7491,2.7498,2.75,2.7494,2.7491,2.7479,2.7479,2.7479,2.7479,0,2.7724,2.7699,2.7703,2.7676,2.7669,2.7677,2.7653,2.7655,2.7636,2.7636,2.7634,2.7605,2.7599,2.7572,2.756,2.7546,2.7556,2.7546,2.7562,2.7558,2.7575,2.7573,2.7636,2.7643,2.7576,2.7577,2.7578,0,2.7756,2.7762,2.7736,2.7733,2.7723,2.7719,2.7714,2.7684,2.768,2.7661,2.7664,2.7656,2.7647,2.7639,2.7616,2.7606,2.7594,2.7617,2.7593,2.76,2.7593,2.7592,2.7592,2.7622,2.7623,2.7624,2.7624,0,2.7816,2.7803,2.7796,2.7786,2.778,2.777,2.7758,2.7758,2.7725,2.7721,2.7714,2.7708,2.7694,2.7686,2.7672,2.7659,2.7636,2.7632,2.7635,2.7643,2.7651,2.7645,2.7575,2.7631,2.763,2.763,2.7629,2.7629,2.7862,2.7865,2.7847,2.784,2.7828,2.7818,2.7817,2.7799,2.7793,2.778,2.7763,2.7758,2.774,2.7719,2.7708,2.7703,2.769,2.7695,2.7696,2.7697,2.77,2.7653,2.77,2.77,2.77,2.77,2.77,0,2.7919,2.7905,2.7899,2.7884,2.7878,2.7857,2.7843,2.784,2.7836,2.7821,2.7813,2.7805,2.7796,2.7772,2.7761,2.7762,2.7751,2.776,2.7759,2.7756,2.7713,2.7711,2.7769,2.7768,2.7768,2.7768,2.7768,2.7768,2.7947,2.7951,2.7936,2.7933,2.7919,2.7914,2.7907,2.7897,2.7885,2.7877,2.787,2.7855,2.7836,2.7823,2.7814,2.7807,2.7803,2.7816,2.7805,2.7766,2.7759,2.7753,2.775,2.7815,2.7816,2.7848,2.7849,2.7849]}]]